Location: Montjuich
(41.3670°N, 2.1670°E)
Time: 10:15:18
(UTC+01:00)

ISS - Visible Passes

Search period start: 21 February 2018 00:00
Search period end: 03 March 2018 00:00
Orbit: 402 x 407 km, 51.6° (Epoch: 21 February)

Date Brightness Start Highest point End Pass type
(mag) Time Alt. Az. Time Alt. Az. Time Alt. Az.
26 Feb -1.3 06:21:49 10° S 06:24:19 20° SE 06:26:48 10° E visible
27 Feb -0.7 05:31:28 10° SE 05:32:14 11° SE 05:33:00 10° ESE visible
28 Feb -3.0 06:13:32 15° SSW 06:15:57 48° SE 06:19:08 10° ENE visible
01 Mar -1.9 05:23:48 25° SE 05:23:48 25° SE 05:26:31 10° ENE visible
01 Mar -3.1 06:57:00 10° W 07:00:07 39° NNW 07:03:14 10° NE visible
02 Mar -3.9 06:06:34 37° WSW 06:07:43 69° NNW 06:10:58 10° NE visible
